TimeCST,TemperatureF,Dew PointF,Humidity,Sea Level PressureIn,VisibilityMPH,Wind Direction,Wind SpeedMPH,Gust SpeedMPH,PrecipitationIn,Events,Conditions,WindDirDegrees,DateUTC
12:53 AM,53.1,48.9,86,30.24,10.0,NE,5.8,-,N/A,,Clear,40,2012-11-10 06:53:00
1:53 AM,53.1,48.9,86,30.24,10.0,NE,4.6,-,N/A,,Clear,40,2012-11-10 07:53:00
2:53 AM,53.1,48.0,83,30.24,10.0,NE,4.6,-,N/A,,Clear,40,2012-11-10 08:53:00
3:53 AM,53.1,48.0,83,30.24,10.0,NE,5.8,-,N/A,,Clear,50,2012-11-10 09:53:00
4:53 AM,52.0,48.0,86,30.26,10.0,NE,3.5,-,N/A,,Clear,40,2012-11-10 10:53:00
5:53 AM,52.0,48.0,86,30.28,10.0,NE,3.5,-,N/A,,Clear,40,2012-11-10 11:53:00
6:53 AM,54.0,48.9,83,30.29,10.0,ENE,3.5,-,N/A,,Clear,70,2012-11-10 12:53:00
7:53 AM,59.0,50.0,72,30.30,10.0,East,5.8,-,N/A,,Clear,80,2012-11-10 13:53:00
8:53 AM,63.0,48.9,60,30.32,10.0,East,8.1,-,N/A,,Clear,80,2012-11-10 14:53:00
9:53 AM,68.0,48.0,49,30.32,10.0,East,10.4,-,N/A,,Clear,100,2012-11-10 15:53:00
10:53 AM,71.1,51.1,49,30.31,10.0,East,8.1,-,N/A,,Clear,100,2012-11-10 16:53:00
11:53 AM,71.1,52.0,51,30.29,10.0,ESE,9.2,-,N/A,,Clear,120,2012-11-10 17:53:00
12:53 PM,72.0,52.0,49,30.27,10.0,SE,12.7,-,N/A,,Clear,130,2012-11-10 18:53:00
1:53 PM,71.1,54.0,55,30.25,10.0,SE,13.8,-,N/A,,Clear,130,2012-11-10 19:53:00
2:53 PM,70.0,55.0,59,30.25,10.0,ESE,9.2,-,N/A,,Scattered Clouds,120,2012-11-10 20:53:00
3:53 PM,69.1,55.9,63,30.25,10.0,ESE,8.1,-,N/A,,Partly Cloudy,120,2012-11-10 21:53:00
4:53 PM,64.9,57.0,75,30.25,10.0,East,6.9,-,N/A,,Partly Cloudy,90,2012-11-10 22:53:00
5:53 PM,64.9,57.9,78,30.26,10.0,East,6.9,-,N/A,,Clear,90,2012-11-10 23:53:00
6:53 PM,64.9,57.9,78,30.27,10.0,East,6.9,-,N/A,,Mostly Cloudy,90,2012-11-11 00:53:00
7:53 PM,64.0,57.0,78,30.27,10.0,East,5.8,-,N/A,,Clear,100,2012-11-11 01:53:00
8:53 PM,62.1,54.0,75,30.28,10.0,East,5.8,-,N/A,,Clear,90,2012-11-11 02:53:00
9:53 PM,64.4,53.6,68,30.25,10.0,ESE,9.2,-,N/A,,Clear,110,2012-11-11 03:53:00
10:53 PM,63.0,55.0,75,30.25,10.0,East,4.6,-,N/A,,Clear,100,2012-11-11 04:53:00
11:53 PM,64.0,55.9,75,30.25,10.0,ENE,4.6,-,N/A,,Partly Cloudy,70,2012-11-11 05:53:00